When you browse on this site, cookies collect data to enhance your experience and personalize the content and advertising you see.
Visit our Privacy Policy to learn more. By continuing to use the site, you agree to this use of cookies and data.
  • In Slovakia
  • List of Countries
  • For 7 days
  • Water Temperature
  • Satellite Maps
  • Weather Map
  • Weather Widgets
  • user-avatar
    Login

    Hourly Weather Wolynce

    Today, 17 July, Wednesday

    Time Temperature Precipitation Wind Pressure Humidity
    00:00 +12°C° 0 mm 2 mps 742 mmHg 95%
    01:00 +10°C° 0 mm 2 mps 742 mmHg 95%
    02:00 +10°C° 0 mm 2 mps 741 mmHg 95%
    03:00 +10°C° 0 mm 2 mps 741 mmHg 95%
    04:00 +10°C° 0 mm 2 mps 741 mmHg 95%
    05:00 +12°C° 0.4 mm 2 mps 741 mmHg 94%
    06:00 +12°C° 0.4 mm 3 mps 740 mmHg 93%
    07:00 +13°C° 0.4 mm 3 mps 740 mmHg 92%
    08:00 +14°C° 0.7 mm 4 mps 740 mmHg 87%
    09:00 +15°C° 0.7 mm 5 mps 740 mmHg 82%
    10:00 +16°C° 0.7 mm 6 mps 741 mmHg 77%
    11:00 +17°C° 0.4 mm 6 mps 741 mmHg 73%
    12:00 +19°C° 0.4 mm 6 mps 741 mmHg 68%
    13:00 +20°C° 0.4 mm 6 mps 741 mmHg 64%
    14:00 +20°C° 0.2 mm 6 mps 741 mmHg 64%
    15:00 +20°C° 0.2 mm 6 mps 741 mmHg 64%
    16:00 +20°C° 0.2 mm 6 mps 741 mmHg 64%
    17:00 +19°C° 0.1 mm 5 mps 741 mmHg 71%
    18:00 +18°C° 0.1 mm 4 mps 741 mmHg 77%
    19:00 +16°C° 0.1 mm 3 mps 741 mmHg 83%
    20:00 +14°C° 0 mm 3 mps 741 mmHg 86%
    21:00 +13°C° 0 mm 3 mps 742 mmHg 89%
    22:00 +12°C° 0 mm 3 mps 742 mmHg 93%
    23:00 +11°C° 0 mm 3 mps 742 mmHg 94%

    Tomorrow, 18 July, Thursday

    Time Temperature Precipitation Wind Pressure Humidity
    00:00 +10°C° 0 mm 3 mps 742 mmHg 95%
    01:00 +10°C° 0 mm 3 mps 742 mmHg 96%
    02:00 +10°C° 0 mm 3 mps 742 mmHg 96%
    03:00 +9°C° 0 mm 3 mps 742 mmHg 97%
    04:00 +9°C° 0 mm 3 mps 742 mmHg 97%
    05:00 +11°C° 0 mm 3 mps 743 mmHg 93%
    06:00 +12°C° 0 mm 3 mps 743 mmHg 90%
    07:00 +13°C° 0 mm 3 mps 743 mmHg 86%
    08:00 +15°C° 0 mm 4 mps 743 mmHg 79%
    09:00 +18°C° 0 mm 4 mps 743 mmHg 71%
    10:00 +20°C° 0 mm 4 mps 744 mmHg 64%
    11:00 +21°C° 0 mm 4 mps 744 mmHg 61%
    12:00 +22°C° 0 mm 3 mps 743 mmHg 57%
    13:00 +22°C° 0 mm 3 mps 743 mmHg 54%
    14:00 +22°C° 0 mm 3 mps 743 mmHg 55%
    15:00 +22°C° 0 mm 3 mps 743 mmHg 55%
    16:00 +22°C° 0 mm 3 mps 743 mmHg 56%
    17:00 +21°C° 0 mm 3 mps 743 mmHg 62%
    18:00 +20°C° 0 mm 2 mps 743 mmHg 67%
    19:00 +19°C° 0 mm 2 mps 743 mmHg 73%
    20:00 +17°C° 0 mm 2 mps 744 mmHg 77%
    21:00 +16°C° 0 mm 2 mps 744 mmHg 81%
    22:00 +15°C° 0 mm 1 mps 744 mmHg 85%
    23:00 +15°C° 0 mm 1 mps 744 mmHg 87%

    Day after tomorrow, 19 July, Friday

    Time Temperature Precipitation Wind Pressure Humidity
    00:00 +14°C° 0 mm 1 mps 744 mmHg 88%
    01:00 +14°C° 0 mm 1 mps 744 mmHg 89%
    02:00 +14°C° 0 mm 1 mps 744 mmHg 90%
    03:00 +13°C° 0 mm 1 mps 744 mmHg 90%
    04:00 +13°C° 0 mm 1 mps 745 mmHg 90%
    05:00 +15°C° 0 mm 1 mps 745 mmHg 84%
    06:00 +18°C° 0 mm 1 mps 745 mmHg 77%
    07:00 +20°C° 0 mm 1 mps 745 mmHg 71%
    08:00 +21°C° 0 mm 1 mps 745 mmHg 64%
    09:00 +22°C° 0 mm 1 mps 745 mmHg 58%
    10:00 +23°C° 0 mm 2 mps 745 mmHg 51%
    11:00 +24°C° 0 mm 2 mps 745 mmHg 48%
    12:00 +25°C° 0 mm 2 mps 745 mmHg 46%
    13:00 +25°C° 0 mm 2 mps 745 mmHg 43%
    14:00 +25°C° 0 mm 2 mps 745 mmHg 43%
    15:00 +25°C° 0 mm 2 mps 745 mmHg 44%
    16:00 +25°C° 0 mm 2 mps 745 mmHg 44%
    17:00 +24°C° 0 mm 1 mps 745 mmHg 52%
    18:00 +22°C° 0 mm 1 mps 745 mmHg 60%
    19:00 +21°C° 0 mm 1 mps 745 mmHg 68%
    20:00 +20°C° 0 mm 1 mps 745 mmHg 72%
    21:00 +18°C° 0 mm 2 mps 745 mmHg 75%
    22:00 +17°C° 0 mm 2 mps 745 mmHg 78%
    23:00 +17°C° 0 mm 2 mps 745 mmHg 79%

    20 July, Saturday

    Time Temperature Precipitation Wind Pressure Humidity
    00:00 +16°C° 0 mm 2 mps 745 mmHg 80%
    01:00 +16°C° 0 mm 2 mps 745 mmHg 80%
    02:00 +15°C° 0 mm 1 mps 745 mmHg 82%
    03:00 +15°C° 0 mm 1 mps 745 mmHg 84%
    04:00 +15°C° 0 mm 1 mps 745 mmHg 85%
    05:00 +18°C° 0 mm 1 mps 746 mmHg 80%
    06:00 +19°C° 0 mm 1 mps 746 mmHg 74%
    07:00 +21°C° 0 mm 1 mps 746 mmHg 69%
    08:00 +23°C° 0 mm 1 mps 746 mmHg 64%
    09:00 +24°C° 0 mm 1 mps 746 mmHg 59%
    10:00 +26°C° 0 mm 1 mps 746 mmHg 54%
    11:00 +26°C° 0.2 mm 1 mps 746 mmHg 52%
    12:00 +27°C° 0.2 mm 1 mps 746 mmHg 49%
    13:00 +26°C° 0.2 mm 0 mps 746 mmHg 47%
    14:00 +28°C° 0 mm 1 mps 746 mmHg 49%
    15:00 +27°C° 0 mm 1 mps 746 mmHg 51%
    16:00 +27°C° 0 mm 1 mps 746 mmHg 52%
    17:00 +26°C° 0 mm 1 mps 746 mmHg 56%
    18:00 +25°C° 0 mm 2 mps 746 mmHg 60%
    19:00 +24°C° 0 mm 2 mps 746 mmHg 65%
    20:00 +23°C° 0 mm 2 mps 747 mmHg 67%
    21:00 +21°C° 0 mm 2 mps 747 mmHg 69%
    22:00 +20°C° 0 mm 2 mps 747 mmHg 71%
    23:00 +19°C° 0 mm 2 mps 747 mmHg 74%

    21 July, Sunday

    Time Temperature Precipitation Wind Pressure Humidity
    00:00 +18°C° 0 mm 2 mps 747 mmHg 77%
    01:00 +18°C° 0 mm 2 mps 747 mmHg 79%
    02:00 +18°C° 0 mm 2 mps 747 mmHg 82%
    03:00 +17°C° 0 mm 2 mps 747 mmHg 84%
    04:00 +17°C° 0 mm 2 mps 747 mmHg 86%
    05:00 +19°C° 0 mm 2 mps 747 mmHg 81%
    06:00 +21°C° 0 mm 3 mps 747 mmHg 76%
    07:00 +22°C° 0 mm 3 mps 747 mmHg 72%
    08:00 +25°C° 0.1 mm 3 mps 747 mmHg 67%
    09:00 +26°C° 0.1 mm 4 mps 747 mmHg 62%
    10:00 +28°C° 0.1 mm 4 mps 747 mmHg 57%
    11:00 +27°C° 1.1 mm 3 mps 747 mmHg 61%
    12:00 +26°C° 1.1 mm 3 mps 747 mmHg 66%
    13:00 +26°C° 1.1 mm 2 mps 747 mmHg 70%
    14:00 +25°C° 1.1 mm 2 mps 746 mmHg 74%
    15:00 +24°C° 1.1 mm 2 mps 746 mmHg 79%
    16:00 +23°C° 1.1 mm 1 mps 746 mmHg 83%
    17:00 +23°C° 0.5 mm 1 mps 746 mmHg 83%
    18:00 +23°C° 0.5 mm 1 mps 746 mmHg 84%
    19:00 +23°C° 0.5 mm 1 mps 746 mmHg 84%
    20:00 +22°C° 0.3 mm 1 mps 746 mmHg 85%
    21:00 +21°C° 0.3 mm 1 mps 746 mmHg 87%
    22:00 +21°C° 0.3 mm 1 mps 746 mmHg 88%
    23:00 +20°C° 0 mm 1 mps 746 mmHg 89%

    22 July, Monday

    Time Temperature Precipitation Wind Pressure Humidity
    00:00 +20°C° 0 mm 1 mps 746 mmHg 90%
    01:00 +20°C° 0 mm 1 mps 746 mmHg 91%
    02:00 +19°C° 0 mm 2 mps 746 mmHg 92%
    03:00 +18°C° 0 mm 2 mps 746 mmHg 93%
    04:00 +18°C° 0 mm 2 mps 746 mmHg 94%
    05:00 +19°C° 0 mm 3 mps 746 mmHg 91%
    06:00 +20°C° 0 mm 3 mps 747 mmHg 88%
    07:00 +21°C° 0 mm 4 mps 747 mmHg 85%
    08:00 +22°C° 0 mm 4 mps 747 mmHg 80%
    09:00 +25°C° 0 mm 5 mps 747 mmHg 74%
    10:00 +26°C° 0 mm 5 mps 747 mmHg 68%
    11:00 +26°C° 0.1 mm 5 mps 747 mmHg 67%
    12:00 +26°C° 0.1 mm 6 mps 747 mmHg 65%
    13:00 +27°C° 0.1 mm 6 mps 747 mmHg 64%
    14:00 +26°C° 0.7 mm 6 mps 747 mmHg 66%
    15:00 +26°C° 0.7 mm 5 mps 747 mmHg 69%
    16:00 +25°C° 0.7 mm 5 mps 747 mmHg 72%
    17:00 +23°C° 1.2 mm 5 mps 747 mmHg 76%
    18:00 +22°C° 1.2 mm 4 mps 747 mmHg 81%
    19:00 +21°C° 1.2 mm 4 mps 747 mmHg 86%
    20:00 +20°C° 0 mm 4 mps 747 mmHg 89%
    21:00 +19°C° 0 mm 4 mps 747 mmHg 92%
    22:00 +18°C° 0 mm 4 mps 747 mmHg 95%
    23:00 +17°C° 0 mm 4 mps 747 mmHg 96%
    Show more